KD5UIG Weather Reports


Display with metric or nautical units.
time (UTC)temp
F
wind
direction
speed
MPH
gust
MPH
rain 1hr
in
rain 24hr
in
rain mn
in
humidity
%
barometer
mb
20260505124556 70 144 2.0 12.0 0.00 0.00 0.00 86 1003.9
20260505124055 69 196 3.0 12.0 0.00 0.00 0.00 86 1003.9
20260505123554 69 201 3.0 11.0 0.00 0.00 0.00 86 1003.8
20260505123054 69 224 5.0 11.0 0.00 0.00 0.00 86 1003.7
20260505122556 69 225 4.0 11.0 0.00 0.00 0.00 87 1003.5
20260505122054 69 189 5.0 11.0 0.00 0.00 0.00 86 1003.4
20260505121625 69 174 4.0 12.0 0.00 0.00 0.00 87 1003.3
20260505121055 69 169 4.0 12.0 0.00 0.00 0.00 86 1003.4
20260505120556 69 192 4.0 12.0 0.00 0.00 0.00 86 1003.3
20260505120057 69 164 4.0 14.0 0.00 0.00 0.00 86 1003.4
20260505115557 69 216 5.0 14.0 0.00 0.00 0.00 86 1003.5
20260505115058 69 219 3.0 10.0 0.00 0.00 0.00 86 1003.4
20260505114600 69 199 4.0 11.0 0.00 0.00 0.00 86 1003.3
20260505114055 69 256 4.0 11.0 0.00 0.00 0.00 86 1003.3
20260505113554 69 167 3.0 12.0 0.00 0.00 0.00 86 1003.3
20260505113101 69 224 4.0 12.0 0.00 0.00 0.00 86 1003.2
20260505112555 69 194 3.0 8.0 0.00 0.00 0.00 86 1003.3
20260505112055 69 164 2.0 8.0 0.00 0.00 0.00 86 1003.2
20260505111557 69 191 4.0 9.0 0.00 0.00 0.00 86 1003.2
20260505111055 69 175 3.0 9.0 0.00 0.00 0.00 85 1003.1
20260505110557 69 192 3.0 10.0 0.00 0.00 0.00 85 1003.2
20260505102056 70 163 3.0 17.0 0.00 0.00 0.00 83 1003.1
20260505101559 70 167 4.0 17.0 0.00 0.00 0.00 83 1003.3
20260505101056 70 207 4.0 10.0 0.00 0.00 0.00 83 1003.2
20260505100556 70 181 4.0 10.0 0.00 0.00 0.00 83 1003.3
20260505100101 70 195 3.0 13.0 0.00 0.00 0.00 82 1003.3
20260505095556 71 183 6.0 13.0 0.00 0.00 0.00 82 1003.4
20260505095056 71 180 3.0 15.0 0.00 0.00 0.00 82 1003.3
20260505094557 71 221 3.0 15.0 0.00 0.00 0.00 82 1003.3
20260505094055 71 179 4.0 15.0 0.00 0.00 0.00 81 1003.2
20260505093555 71 199 5.0 14.0 0.00 0.00 0.00 81 1003.1
20260505093056 71 211 4.0 13.0 0.00 0.00 0.00 81 1003.1
20260505092601 71 191 3.0 13.0 0.00 0.00 0.00 81 1003.1
20260505092055 71 151 3.0 17.0 0.00 0.00 0.00 80 1003.2
20260505091557 71 213 4.0 17.0 0.00 0.00 0.00 80 1003.3
20260505091059 71 15 4.0 17.0 0.00 0.00 0.00 80 1003.4
20260505090555 72 198 5.0 13.0 0.00 0.00 0.00 80 1003.5
20260505090105 72 197 4.0 14.0 0.00 0.00 0.00 80 1003.4
20260505085555 72 150 5.0 15.0 0.00 0.00 0.00 79 1003.6
20260505085055 72 161 5.0 15.0 0.00 0.00 0.00 79 1003.5
20260505084556 72 186 6.0 14.0 0.00 0.00 0.00 78 1003.5
20260505084056 72 211 5.0 13.0 0.00 0.00 0.00 78 1003.5
20260505083622 72 186 3.0 14.0 0.00 0.00 0.00 78 1003.5
20260505083100 72 91 5.0 18.0 0.00 0.00 0.00 77 1003.5
20260505082554 72 144 6.0 18.0 0.00 0.00 0.00 77 1003.6
20260505082055 73 200 4.0 17.0 0.00 0.00 0.00 77 1003.6
20260505081558 73 166 5.0 17.0 0.00 0.00 0.00 76 1003.6
20260505081058 73 215 6.0 16.0 0.00 0.00 0.00 76 1003.5
20260505080556 73 184 5.0 16.0 0.00 0.00 0.00 76 1003.6
20260505080055 73 147 6.0 15.0 0.00 0.00 0.00 76 1003.6
20260505075554 73 209 5.0 17.0 0.00 0.00 0.00 75 1003.6
20260505075054 73 168 4.0 18.0 0.00 0.00 0.00 75 1003.8
20260505074553 73 185 6.0 18.0 0.00 0.00 0.00 75 1003.8
20260505074054 73 169 3.0 13.0 0.00 0.00 0.00 75 1004.0
20260505073554 73 184 5.0 16.0 0.00 0.00 0.00 75 1004.0
20260505073053 73 192 4.0 16.0 0.00 0.00 0.00 74 1004.2
20260505072558 73 171 5.0 15.0 0.00 0.00 0.00 74 1004.3
20260505072054 73 153 3.0 15.0 0.00 0.00 0.00 74 1004.4
20260505071554 73 189 4.0 15.0 0.00 0.00 0.00 73 1004.5
20260505071055 73 194 5.0 15.0 0.00 0.00 0.00 73 1004.5
20260505070555 73 157 3.0 11.0 0.00 0.00 0.00 73 1004.5
20260505070054 74 177 4.0 15.0 0.00 0.00 0.00 73 1004.5
20260505065555 74 182 3.0 15.0 0.00 0.00 0.00 73 1004.6
20260505065054 74 200 4.0 11.0 0.00 0.00 0.00 73 1004.7
20260505064558 74 209 4.0 10.0 0.00 0.00 0.00 73 1004.8
20260505064054 74 182 2.0 13.0 0.00 0.00 0.00 72 1004.9
20260505063556 74 228 3.0 14.0 0.00 0.00 0.00 72 1005.0
20260505063055 74 202 5.0 14.0 0.00 0.00 0.00 72 1005.0
20260505062554 74 182 5.0 16.0 0.00 0.00 0.00 72 1005.0
20260505062053 74 158 5.0 16.0 0.00 0.00 0.00 72 1005.0
20260505061557 74 188 4.0 14.0 0.00 0.00 0.00 73 1004.9
20260505061054 74 210 4.0 12.0 0.00 0.00 0.00 73 1005.1
20260505060554 74 200 4.0 12.0 0.00 0.00 0.00 73 1005.1
20260505060059 74 198 4.0 10.0 0.00 0.00 0.00 73 1005.1
20260505055554 73 203 2.0 13.0 0.00 0.00 0.00 73 1005.1
20260505055055 73 169 4.0 13.0 0.00 0.00 0.00 74 1005.1
20260505054558 73 215 3.0 9.0 0.00 0.00 0.00 74 1005.1
20260505054054 73 187 2.0 8.0 0.00 0.00 0.00 74 1005.1
20260505053555 73 185 2.0 10.0 0.00 0.00 0.00 74 1005.0
20260505053108 73 231 3.0 10.0 0.00 0.00 0.00 74 1005.1
20260505052557 73 209 1.0 10.0 0.00 0.00 0.00 74 1005.0
20260505052054 73 188 2.0 13.0 0.00 0.00 0.00 74 1005.1
20260505051607 73 0 1.0 13.0 0.00 0.00 0.00 75 1005.0
20260505051055 73 180 1.0 9.0 0.00 0.00 0.00 75 1005.1
20260505050554 73 0 2.0 9.0 0.00 0.00 0.00 75 1005.1
20260505041559 73 221 2.0 16.0 0.00 0.00 0.00 73 1005.4
20260505041054 74 202 3.0 16.0 0.00 0.00 0.00 73 1005.4
20260505040557 74 211 2.0 9.0 0.00 0.00 0.00 73 1005.5
20260505040056 74 208 2.0 11.0 0.00 0.00 0.00 73 1005.4
20260505035555 74 157 2.0 12.0 0.00 0.00 0.00 72 1005.4
20260505035054 74 214 2.0 13.0 0.00 0.00 0.00 72 1005.4
20260505034552 74 184 4.0 14.0 0.00 0.00 0.00 72 1005.5
20260505034054 74 222 3.0 14.0 0.00 0.00 0.00 72 1005.5
20260505033554 74 229 3.0 12.0 0.00 0.00 0.00 72 1005.5
20260505033115 74 227 3.0 12.0 0.00 0.00 0.00 72 1005.4
20260505032554 74 167 2.0 8.0 0.00 0.00 0.00 72 1005.3
20260505032054 74 215 1.0 13.0 0.00 0.00 0.00 72 1005.2
20260505031556 74 192 2.0 13.0 0.00 0.00 0.00 72 1005.3
20260505031058 74 229 2.0 12.0 0.00 0.00 0.00 72 1005.4
20260505030557 74 0 2.0 9.0 0.00 0.00 0.00 72 1005.5
20260505030056 74 193 1.0 7.0 0.00 0.00 0.00 72 1005.4
20260505025554 74 0 2.0 8.0 0.00 0.00 0.00 72 1005.4
20260505025054 74 186 1.0 8.0 0.00 0.00 0.00 72 1005.5
20260505024609 74 174 2.0 9.0 0.00 0.00 0.00 72 1005.5
20260505024054 74 238 2.0 9.0 0.00 0.00 0.00 72 1005.5
20260505023554 74 153 0.0 9.0 0.00 0.00 0.00 72 1005.6
20260505023107 74 211 1.0 9.0 0.00 0.00 0.00 72 1005.4
20260505022554 74 168 2.0 8.0 0.00 0.00 0.00 72 1005.5
20260505022057 74 0 1.0 9.0 0.00 0.00 0.00 71 1005.5
20260505021556 74 214 1.0 9.0 0.00 0.00 0.00 71 1005.6
20260505021054 74 0 2.0 9.0 0.00 0.00 0.00 71 1005.5
20260505020554 74 185 3.0 12.0 0.00 0.00 0.00 71 1005.5
20260505020057 74 178 3.0 12.0 0.00 0.00 0.00 71 1005.4
20260505015555 74 201 3.0 12.0 0.00 0.00 0.00 70 1005.4
20260505015056 75 208 2.0 9.0 0.00 0.00 0.00 70 1005.3
20260505014555 75 111 2.0 9.0 0.00 0.00 0.00 70 1005.3
20260505014055 75 190 1.0 12.0 0.00 0.00 0.00 70 1005.3
20260505013554 75 211 3.0 12.0 0.00 0.00 0.00 69 1005.3
20260505013056 75 227 3.0 10.0 0.00 0.00 0.00 69 1005.3
20260505012554 75 197 3.0 10.0 0.00 0.00 0.00 69 1005.4
20260505012057 75 182 3.0 12.0 0.00 0.00 0.00 69 1005.3
20260505011601 76 0 1.0 12.0 0.00 0.00 0.00 68 1005.3
20260505011055 76 217 3.0 12.0 0.00 0.00 0.00 68 1005.4
20260505010557 76 179 2.0 10.0 0.00 0.00 0.00 67 1005.3
20260505010058 76 173 2.0 9.0 0.00 0.00 0.00 67 1005.3
20260505005555 77 189 4.0 14.0 0.00 0.00 0.00 66 1005.3
20260505005055 77 196 3.0 14.0 0.00 0.00 0.00 66 1005.4
20260505004559 77 244 4.0 12.0 0.00 0.00 0.00 65 1005.4
20260505004057 77 155 4.0 11.0 0.00 0.00 0.00 65 1005.4
20260505003557 78 201 2.0 11.0 0.00 0.00 0.00 64 1005.3
20260505003054 78 196 2.0 14.0 0.00 0.00 0.00 64 1005.4
20260505002554 78 215 3.0 16.0 0.00 0.00 0.00 63 1005.3
20260505002054 79 179 4.0 16.0 0.00 0.00 0.00 63 1005.4
20260505001556 79 175 4.0 14.0 0.00 0.00 0.00 63 1005.4
20260505001056 79 259 4.0 14.0 0.00 0.00 0.00 62 1005.4
20260505000558 80 149 3.0 14.0 0.00 0.00 0.00 61 1005.5
20260505000100 80 264 3.0 13.0 0.00 0.00 0.00 61 1005.6
20260504235555 80 193 2.0 12.0 0.00 0.00 0.00 61 1005.5
20260504235057 80 189 4.0 12.0 0.00 0.00 0.00 60 1005.5
20260504234616 81 181 2.0 15.0 0.00 0.00 0.00 60 1005.4
20260504234054 80 29 3.0 15.0 0.00 0.00 0.00 60 1005.6
20260504233554 81 186 5.0 17.0 0.00 0.00 0.00 60 1005.5
20260504233057 80 194 4.0 17.0 0.00 0.00 0.00 60 1005.4
20260504232556 80 144 5.0 13.0 0.00 0.00 0.00 60 1005.5
20260504232054 80 83 5.0 13.0 0.00 0.00 0.00 60 1005.5
20260504231601 81 193 5.0 13.0 0.00 0.00 0.00 59 1005.6
20260504231054 81 189 4.0 18.0 0.00 0.00 0.00 58 1005.5
20260504230557 81 209 4.0 18.0 0.00 0.00 0.00 57 1005.5
20260504230101 82 192 4.0 20.0 0.00 0.00 0.00 57 1005.8
20260504225555 82 189 4.0 20.0 0.00 0.00 0.00 57 1006.0
20260504225057 83 182 3.0 13.0 0.00 0.00 0.00 56 1005.9
20260504224606 83 206 3.0 16.0 0.00 0.00 0.00 56 1005.8
20260504224056 84 132 5.0 17.0 0.00 0.00 0.00 56 1005.9
20260504223555 83 224 5.0 17.0 0.00 0.00 0.00 56 1005.9
20260504223057 83 207 5.0 16.0 0.00 0.00 0.00 56 1005.9
20260504222555 84 207 4.0 16.0 0.00 0.00 0.00 56 1005.9
20260504222054 83 219 4.0 15.0 0.00 0.00 0.00 57 1006.0
20260504221604 84 213 5.0 19.0 0.00 0.00 0.00 55 1006.1
20260504221054 84 163 3.0 19.0 0.00 0.00 0.00 56 1006.1
20260504220555 84 232 3.0 19.0 0.00 0.00 0.00 56 1006.1
20260504220057 84 163 5.0 19.0 0.00 0.00 0.00 55 1006.1
20260504215556 84 178 3.0 15.0 0.00 0.00 0.00 55 1006.2
20260504215055 84 276 5.0 21.0 0.00 0.00 0.00 55 1006.1
20260504214602 84 171 4.0 21.0 0.00 0.00 0.00 54 1006.2
20260504214054 84 206 3.0 15.0 0.00 0.00 0.00 55 1006.3
20260504213554 84 183 5.0 15.0 0.00 0.00 0.00 55 1006.3
20260504213103 84 176 5.0 19.0 0.00 0.00 0.00 56 1006.4
20260504212554 83 215 3.0 19.0 0.00 0.00 0.00 57 1006.7
20260504212056 83 214 4.0 18.0 0.00 0.00 0.00 56 1007.0
20260504211554 84 219 6.0 18.0 0.00 0.00 0.00 55 1007.1
20260504211058 84 51 5.0 16.0 0.00 0.00 0.00 55 1006.9
20260504210555 84 159 4.0 16.0 0.00 0.00 0.00 55 1007.1
20260504210105 84 200 3.0 15.0 0.00 0.00 0.00 55 1007.2
20260504205558 84 0 5.0 15.0 0.00 0.00 0.00 55 1007.3
20260504205058 84 86 3.0 14.0 0.00 0.00 0.00 55 1007.4
20260504204637 84 224 6.0 14.0 0.00 0.00 0.00 56 1007.5
20260504204054 84 164 2.0 12.0 0.00 0.00 0.00 55 1007.5
20260504203554 84 183 3.0 12.0 0.00 0.00 0.00 56 1007.6
20260504203055 84 158 4.0 17.0 0.00 0.00 0.00 54 1007.6
20260504202553 84 167 5.0 17.0 0.00 0.00 0.00 55 1007.6
20260504202055 84 206 4.0 14.0 0.00 0.00 0.00 54 1007.7
20260504201555 84 220 5.0 15.0 0.00 0.00 0.00 54 1007.8
20260504201054 84 188 4.0 15.0 0.00 0.00 0.00 53 1007.9
20260504200555 84 226 5.0 13.0 0.00 0.00 0.00 53 1008.0
20260504200059 84 201 5.0 15.0 0.00 0.00 0.00 53 1008.3
20260504195553 84 178 6.0 15.0 0.00 0.00 0.00 53 1008.5
20260504195058 84 286 3.0 19.0 0.00 0.00 0.00 54 1008.6
20260504194555 84 117 8.0 19.0 0.00 0.00 0.00 55 1008.6
20260504194055 84 168 4.0 18.0 0.00 0.00 0.00 52 1008.6
20260504193559 84 192 5.0 16.0 0.00 0.00 0.00 54 1008.7
20260504193053 84 207 7.0 16.0 0.00 0.00 0.00 53 1008.7
20260504192554 84 211 5.0 16.0 0.00 0.00 0.00 53 1008.8
20260504192054 84 229 6.0 15.0 0.00 0.00 0.00 54 1008.7
20260504191556 84 211 3.0 12.0 0.00 0.00 0.00 54 1008.9
20260504191054 84 209 4.0 13.0 0.00 0.00 0.00 54 1008.9
20260504190554 83 244 5.0 13.0 0.00 0.00 0.00 54 1009.0
20260504185555 82 198 3.0 17.0 0.00 0.00 0.00 56 1009.3
20260504185055 82 299 7.0 17.0 0.00 0.00 0.00 53 1009.4
20260504184605 82 241 5.0 16.0 0.00 0.00 0.00 56 1009.4
20260504184055 81 279 5.0 18.0 0.00 0.00 0.00 56 1009.5
20260504183554 81 198 5.0 21.0 0.00 0.00 0.00 55 1009.6
20260504183100 81 163 4.0 21.0 0.00 0.00 0.00 56 1009.7
20260504182559 81 198 5.0 18.0 0.00 0.00 0.00 55 1009.8
20260504182054 80 211 5.0 18.0 0.00 0.00 0.00 56 1010.0
20260504181555 80 151 5.0 14.0 0.00 0.00 0.00 56 1009.9
20260504181055 80 225 6.0 14.0 0.00 0.00 0.00 56 1010.1
20260504180557 80 196 6.0 18.0 0.00 0.00 0.00 56 1010.2
20260504180058 80 197 7.0 18.0 0.00 0.00 0.00 55 1010.3
20260504175557 80 194 6.0 19.0 0.00 0.00 0.00 56 1010.3
20260504175054 80 236 6.0 19.0 0.00 0.00 0.00 57 1010.4
20260504174601 80 123 6.0 16.0 0.00 0.00 0.00 56 1010.4
20260504174054 80 173 6.0 17.0 0.00 0.00 0.00 57 1010.4
20260504173555 79 241 6.0 21.0 0.00 0.00 0.00 56 1010.6
20260504173058 79 154 6.0 21.0 0.00 0.00 0.00 56 1010.7
20260504172554 79 150 6.0 18.0 0.00 0.00 0.00 56 1010.7
20260504172055 79 187 6.0 23.0 0.00 0.00 0.00 58 1010.9
20260504171655 78 246 5.0 23.0 0.00 0.00 0.00 57 1011.0
20260504171056 78 222 8.0 21.0 0.00 0.00 0.00 57 1011.0
20260504170555 78 125 6.0 20.0 0.00 0.00 0.00 56 1011.0
20260504151055 73 216 5.0 15.0 0.00 0.00 0.00 62 1012.1
20260504150557 73 192 6.0 17.0 0.00 0.00 0.00 61 1012.0
20260504141054 69 173 5.0 16.0 0.00 0.00 0.00 68 1012.3
20260504140555 69 235 5.0 13.0 0.00 0.00 0.00 68 1012.3